Preview of NWS' New Version of Forecast
This preview is not operational and should not be used for support decisions.

Regional Weather Roundup (RWR)

Issued by National Weather Service (NWS)

                            
000
ASUS43 KTOP 191259
RWRKS 

WEATHER ROUNDUP FOR KANSAS
NATIONAL WEATHER SERVICE GOODLAND KS
800 AM CDT MON AUG 19 2019

NOTE:  "FAIR" INDICATES FEW OR NO CLOUDS BELOW 12,000 FEET WITH NO
SIGNIFICANT WEATHER AND/OR OBSTRUCTIONS TO VISIBILITY.

KSZ001>006-013>018-027>032-041>047-191400-
NORTHWEST KANSAS
  
CITY           SKY/WX    TMP DP  RH WIND       PRES   REMARKS
GOODLAND       CLEAR     64  64 100 SE6       30.00S FOG              
HAYS           CLOUDY    71  71 100 E8        29.87S FOG              
HILL CITY      FOG       69  69 100 E9        29.99R VSB<1/4          
RUSSELL        FOG       71  70  96 E8        29.96R VSB 1/4          
$$

KSZ061>065-074>080-084>089-191400-
SOUTHWEST KANSAS
  
CITY           SKY/WX    TMP DP  RH WIND       PRES   REMARKS
DODGE CITY     FOG       70  69  97 SE3       29.97S VSB 1            
GARDEN CITY    SUNNY     67  66  97 SE5       29.98R FOG              
GREAT BEND     FOG       74  73  97 SE8       29.97R VSB 1            
LIBERAL        SUNNY     69  65  86 CALM      29.99R                  
$$

KSZ066>073-081>083-090>101-191400-
SOUTHEAST KANSAS
  
CITY           SKY/WX    TMP DP  RH WIND       PRES   REMARKS
CHANUTE        MOSUNNY   78  73  84 SE7       29.99R                  
COFFEYVILLE    MOSUNNY   76  72  87 SE5       29.97R                  
HUTCHINSON     SUNNY     76  73  91 SE7       29.96R                  
MEDICINE LODGE   N/A     75  71  87 SE6       29.94R                  
NEWTON         SUNNY     74  72  93 SE10      29.98R                  
PARSONS        MOSUNNY   77  73  87 S3        29.99R                  
WICHITA INTL   MOSUNNY   77  72  84 SE9       29.96R                  
WICHITA JABRA  SUNNY     76  73  91 SE7       29.97R                  
WICHITA MCCONL SUNNY     77  70  78 E8        29.97R                  
WINFIELD       SUNNY     77  71  82 SE7       29.97R                  
$$

KSZ007>012-019>026-033>040-048>060-102>105-191400-
NORTHEAST KANSAS
  
CITY           SKY/WX    TMP DP  RH WIND       PRES   REMARKS
CONCORDIA      SUNNY     70  67  90 E7        29.99S                  
EMPORIA        SUNNY     75  74  96 SE6       29.98R                  
LAWRENCE       MOSUNNY   75  70  84 CALM      29.99R                  
MANHATTAN      SUNNY     73  69  87 NE7       29.98R                  
OLATHE IND     MOSUNNY   75  72  90 E5        30.01R                  
OLATHE EXE     MOSUNNY   75  72  90 NE7       30.00R                  
SALINA         SUNNY     74  70  87 E6        29.97R                  
TOPEKA BILLARD MOSUNNY   74  69  85 NE3       29.99R                  
TOPEKA FORBES  MOSUNNY   75  70  84 E3        29.99R                  
$$